ROMMA est une association bénévole à but non lucratif. Votre soutien est indispensable : ADHERER à ROMMA ou FAIRE un DON

Saint-Vallier-de-Thiey - (06, Alpes-Maritimes)

Côte-d'Azur (723 m)   Longitude: 06° 50' 21" E   Latitude: 43° 42' 8" N Station partenaire n°150
 

Détail journalier du     <<     >>

Température Precipitation Humidité Pression Vent Dir Rafale Dir. rafale
Heure (°C) (mm) (%) (hPa) (km/h) (km/h)
01:00 2.805910233NNO6NNO
02:00 2.406910223NNO6NNO
03:00 2.306710223NNO6NNO
04:00 2.906610213NNO8NNO
05:00 3.707010212NNO10NNO
06:00 2.406110205NNO13NNO
07:00 1.705910203NNO8NNO
08:00 1.605810204NNO6NNO
09:00 6.105210192NNO6NNO
10:00 6.605610191NE6NE
11:00 7.305310191NE3NE
12:00 7.406810182SSO8ESE
13:00 7.907110164SSO11SSO
14:00 8.507210165SO11SSO
15:00 7.207710154SSO11SSO
16:00 6.607310141SO11SO
17:00 6.50.26810144OSO32ONO
18:00 6.807210118NNO27NNO
19:00 5.607710116E29E
20:00 5.008110102NNE6NNE
21:00 8.305610076NE29E
22:00 8.0059100810SSE53SSE
23:00
minuit

Graphique du 11-12-2019

 

Serveur OMMA